Time,TemperatureF,DewpointF,PressureIn,WindDirection,WindDirectionDegrees,WindSpeedMPH,WindSpeedGustMPH,Humidity,HourlyPrecipIn,Conditions,Clouds,dailyrainin,SoftwareType,DateUTC
2013-08-12 00:00:00,79.2,74.3,30.12,South,177,0.0,0.0,85,0.00,,,0.00,Wunderground v.1.15,2013-08-12 04:00:00,
2013-08-12 00:05:00,79.0,74.5,30.12,South,177,0.0,0.0,86,0.00,,,0.00,Wunderground v.1.15,2013-08-12 04:05:00,
2013-08-12 00:10:00,78.7,73.8,30.12,South,177,0.0,0.0,85,0.00,,,0.00,Wunderground v.1.15,2013-08-12 04:10:00,
2013-08-12 00:15:00,78.5,74.0,30.12,South,177,0.0,0.0,86,0.00,,,0.00,Wunderground v.1.15,2013-08-12 04:15:00,
2013-08-12 00:20:00,78.4,73.9,30.12,South,177,0.0,0.0,86,0.00,,,0.00,Wunderground v.1.15,2013-08-12 04:20:00,
2013-08-12 00:25:00,78.2,73.7,30.12,South,177,0.0,0.0,86,0.00,,,0.00,Wunderground v.1.15,2013-08-12 04:25:00,
2013-08-12 00:30:00,78.0,73.8,30.12,South,177,0.0,0.0,87,0.00,,,0.00,Wunderground v.1.15,2013-08-12 04:30:00,
2013-08-12 00:35:00,77.8,73.6,30.13,South,177,0.0,0.0,87,0.00,,,0.00,Wunderground v.1.15,2013-08-12 04:35:00,
2013-08-12 00:45:00,77.5,73.7,30.12,South,177,0.0,0.0,88,0.00,,,0.00,Wunderground v.1.15,2013-08-12 04:45:00,
2013-08-12 00:50:00,77.5,73.7,30.13,South,177,0.0,0.0,88,0.00,,,0.00,Wunderground v.1.15,2013-08-12 04:50:00,
2013-08-12 00:55:00,77.4,73.6,30.13,South,177,0.0,0.0,88,0.00,,,0.00,Wunderground v.1.15,2013-08-12 04:55:00,
2013-08-12 01:00:00,77.2,73.4,30.13,South,177,0.0,0.0,88,0.00,,,0.00,Wunderground v.1.15,2013-08-12 05:00:00,
2013-08-12 01:05:00,77.1,73.3,30.13,South,177,0.0,0.0,88,0.00,,,0.00,Wunderground v.1.15,2013-08-12 05:05:00,
2013-08-12 01:15:00,76.9,73.1,30.12,South,177,0.0,0.0,88,0.00,,,0.00,Wunderground v.1.15,2013-08-12 05:15:00,
2013-08-12 01:25:00,76.9,72.7,30.12,South,177,0.0,0.0,87,0.00,,,0.00,Wunderground v.1.15,2013-08-12 05:25:00,
2013-08-12 01:35:00,76.8,72.6,30.12,South,177,0.0,0.0,87,0.00,,,0.00,Wunderground v.1.15,2013-08-12 05:35:00,
2013-08-12 01:40:00,76.8,73.0,30.12,South,177,0.0,0.0,88,0.00,,,0.00,Wunderground v.1.15,2013-08-12 05:40:00,
2013-08-12 01:50:00,76.7,73.2,30.12,South,177,0.0,0.0,89,0.00,,,0.00,Wunderground v.1.15,2013-08-12 05:50:00,
2013-08-12 02:00:00,76.5,72.7,30.11,South,177,0.0,0.0,88,0.00,,,0.00,Wunderground v.1.15,2013-08-12 06:00:00,
2013-08-12 02:05:00,76.4,72.9,30.11,South,177,0.0,0.0,89,0.00,,,0.00,Wunderground v.1.15,2013-08-12 06:05:00,
2013-08-12 02:10:00,76.4,72.9,30.11,South,177,0.0,0.0,89,0.00,,,0.00,Wunderground v.1.15,2013-08-12 06:10:00,
2013-08-12 02:20:00,76.2,72.7,30.11,South,177,0.0,0.0,89,0.00,,,0.00,Wunderground v.1.15,2013-08-12 06:20:00,
2013-08-12 02:30:00,76.0,72.9,30.11,South,177,0.0,0.0,90,0.00,,,0.00,Wunderground v.1.15,2013-08-12 06:30:00,
2013-08-12 02:35:00,75.8,72.7,30.10,South,177,0.0,0.0,90,0.00,,,0.00,Wunderground v.1.15,2013-08-12 06:35:00,
2013-08-12 02:45:00,75.7,72.6,30.10,South,177,0.0,0.0,90,0.00,,,0.00,Wunderground v.1.15,2013-08-12 06:45:00,
2013-08-12 02:55:00,75.5,72.4,30.10,South,177,0.0,0.0,90,0.00,,,0.00,Wunderground v.1.15,2013-08-12 06:55:00,
2013-08-12 03:00:00,75.5,72.7,30.10,South,177,0.0,0.0,91,0.00,,,0.00,Wunderground v.1.15,2013-08-12 07:00:00,
2013-08-12 03:10:00,75.3,72.5,30.10,South,177,0.0,0.0,91,0.00,,,0.00,Wunderground v.1.15,2013-08-12 07:10:00,
2013-08-12 03:15:00,75.2,72.4,30.10,South,177,0.0,0.0,91,0.00,,,0.00,Wunderground v.1.15,2013-08-12 07:15:00,
2013-08-12 03:25:00,75.0,72.5,30.09,South,177,0.0,0.0,92,0.00,,,0.00,Wunderground v.1.15,2013-08-12 07:25:00,
2013-08-12 03:35:00,74.9,72.4,30.09,South,177,0.0,0.0,92,0.00,,,0.00,Wunderground v.1.15,2013-08-12 07:35:00,
2013-08-12 03:45:00,74.7,72.2,30.08,South,177,0.0,0.0,92,0.00,,,0.00,Wunderground v.1.15,2013-08-12 07:45:00,
2013-08-12 03:55:00,74.6,72.4,30.08,South,177,0.0,0.0,93,0.00,,,0.00,Wunderground v.1.15,2013-08-12 07:55:00,
2013-08-12 04:00:00,74.6,72.4,30.08,South,177,0.0,0.0,93,0.00,,,0.00,Wunderground v.1.15,2013-08-12 08:00:00,
2013-08-12 04:10:00,74.5,72.3,30.09,South,177,0.0,0.0,93,0.00,,,0.00,Wunderground v.1.15,2013-08-12 08:10:00,
2013-08-12 04:15:00,74.5,72.3,30.09,South,177,0.0,0.0,93,0.00,,,0.00,Wunderground v.1.15,2013-08-12 08:15:00,
2013-08-12 04:25:00,74.5,72.7,30.08,South,177,0.0,0.0,94,0.00,,,0.00,Wunderground v.1.15,2013-08-12 08:25:00,
2013-08-12 04:30:00,74.5,72.7,30.08,South,177,0.0,0.0,94,0.00,,,0.00,Wunderground v.1.15,2013-08-12 08:30:00,
2013-08-12 04:40:00,74.5,72.7,30.08,South,177,0.0,0.0,94,0.00,,,0.00,Wunderground v.1.15,2013-08-12 08:40:00,
2013-08-12 04:50:00,74.5,72.7,30.08,South,177,0.0,0.0,94,0.00,,,0.00,Wunderground v.1.15,2013-08-12 08:50:00,
2013-08-12 05:00:00,74.5,73.0,30.09,South,177,0.0,0.0,95,0.00,,,0.00,Wunderground v.1.15,2013-08-12 09:00:00,
2013-08-12 05:05:00,74.4,72.9,30.08,South,177,0.0,0.0,95,0.00,,,0.00,Wunderground v.1.15,2013-08-12 09:05:00,
2013-08-12 05:15:00,74.5,73.0,30.08,South,177,0.0,0.0,95,0.00,,,0.00,Wunderground v.1.15,2013-08-12 09:15:00,
2013-08-12 05:25:00,74.4,72.9,30.09,South,177,0.0,0.0,95,0.00,,,0.00,Wunderground v.1.15,2013-08-12 09:25:00,
2013-08-12 05:30:00,74.3,72.8,30.08,South,177,0.0,0.0,95,0.00,,,0.00,Wunderground v.1.15,2013-08-12 09:30:00,
2013-08-12 05:40:00,74.3,72.8,30.09,South,177,0.0,0.0,95,0.00,,,0.00,Wunderground v.1.15,2013-08-12 09:40:00,
2013-08-12 05:45:00,74.3,72.8,30.09,South,177,0.0,0.0,95,0.00,,,0.00,Wunderground v.1.15,2013-08-12 09:45:00,
2013-08-12 05:55:00,74.3,72.8,30.09,South,177,0.0,0.0,95,0.00,,,0.00,Wunderground v.1.15,2013-08-12 09:55:00,
2013-08-12 06:00:00,74.4,73.2,30.09,South,177,0.0,0.0,96,0.00,,,0.00,Wunderground v.1.15,2013-08-12 10:00:00,
2013-08-12 06:10:00,74.2,72.7,30.09,South,177,0.0,0.0,95,0.00,,,0.00,Wunderground v.1.15,2013-08-12 10:10:00,
2013-08-12 06:20:00,74.3,73.1,30.10,South,177,0.0,0.0,96,0.00,,,0.00,Wunderground v.1.15,2013-08-12 10:20:00,
2013-08-12 06:30:00,74.3,73.1,30.09,South,177,0.0,0.0,96,0.00,,,0.00,Wunderground v.1.15,2013-08-12 10:30:00,
2013-08-12 06:35:00,74.3,73.1,30.10,South,178,0.0,0.0,96,0.00,,,0.00,Wunderground v.1.15,2013-08-12 10:35:00,
2013-08-12 06:45:00,74.1,72.9,30.10,South,178,0.0,0.0,96,0.00,,,0.00,Wunderground v.1.15,2013-08-12 10:45:00,
2013-08-12 06:50:00,74.0,72.8,30.10,South,178,0.0,0.0,96,0.00,,,0.00,Wunderground v.1.15,2013-08-12 10:50:00,
2013-08-12 07:00:00,74.3,73.4,30.10,South,178,0.0,0.0,97,0.00,,,0.00,Wunderground v.1.15,2013-08-12 11:00:00,
2013-08-12 07:05:00,74.4,73.5,30.10,South,178,0.0,0.0,97,0.00,,,0.00,Wunderground v.1.15,2013-08-12 11:05:00,
2013-08-12 07:15:00,74.4,73.5,30.10,South,178,0.0,0.0,97,0.00,,,0.00,Wunderground v.1.15,2013-08-12 11:15:00,
2013-08-12 07:25:00,74.4,73.5,30.11,South,178,0.0,0.0,97,0.00,,,0.00,Wunderground v.1.15,2013-08-12 11:25:00,
2013-08-12 07:30:00,74.5,73.6,30.11,South,178,0.0,0.0,97,0.00,,,0.00,Wunderground v.1.15,2013-08-12 11:30:00,
2013-08-12 07:40:00,74.7,73.8,30.11,South,178,0.0,0.0,97,0.00,,,0.00,Wunderground v.1.15,2013-08-12 11:40:00,
2013-08-12 07:50:00,75.3,74.4,30.10,South,178,0.0,0.0,97,0.00,,,0.00,Wunderground v.1.15,2013-08-12 11:50:00,
2013-08-12 07:55:00,75.6,74.7,30.10,South,178,0.0,0.0,97,0.00,,,0.00,Wunderground v.1.15,2013-08-12 11:55:00,
2013-08-12 08:00:00,76.0,75.1,30.11,WSW,245,0.0,1.0,97,0.00,,,0.00,Wunderground v.1.15,2013-08-12 12:00:00,
2013-08-12 08:10:00,76.8,75.6,30.11,SSW,200,0.0,0.0,96,0.00,,,0.00,Wunderground v.1.15,2013-08-12 12:10:00,
2013-08-12 08:20:00,77.9,76.4,30.11,SSW,202,0.0,0.0,95,0.00,,,0.00,Wunderground v.1.15,2013-08-12 12:20:00,
2013-08-12 08:30:00,79.1,76.6,30.11,SSW,211,0.0,0.0,92,0.00,,,0.00,Wunderground v.1.15,2013-08-12 12:30:00,
2013-08-12 08:35:00,79.8,76.9,30.11,SSW,211,0.0,0.0,91,0.00,,,0.00,Wunderground v.1.15,2013-08-12 12:35:00,
2013-08-12 08:45:00,80.8,76.9,30.11,South,179,1.0,1.0,88,0.00,,,0.00,Wunderground v.1.15,2013-08-12 12:45:00,
2013-08-12 08:55:00,81.5,77.6,30.12,South,179,0.0,1.0,88,0.00,,,0.00,Wunderground v.1.15,2013-08-12 12:55:00,
2013-08-12 09:00:00,81.9,77.6,30.11,South,180,0.0,0.0,87,0.00,,,0.00,Wunderground v.1.15,2013-08-12 13:00:00,
2013-08-12 09:10:00,82.9,77.9,30.11,South,186,0.0,1.0,85,0.00,,,0.00,Wunderground v.1.15,2013-08-12 13:10:00,
2013-08-12 09:15:00,83.2,78.2,30.11,SSE,167,1.0,1.0,85,0.00,,,0.00,Wunderground v.1.15,2013-08-12 13:15:00,
2013-08-12 09:25:00,83.8,78.1,30.11,SW,216,1.0,1.0,83,0.00,,,0.00,Wunderground v.1.15,2013-08-12 13:25:00,
2013-08-12 09:35:00,84.3,78.2,30.11,South,176,0.0,0.0,82,0.00,,,0.00,Wunderground v.1.15,2013-08-12 13:35:00,
2013-08-12 09:45:00,85.2,78.3,30.11,South,173,1.0,1.0,80,0.00,,,0.00,Wunderground v.1.15,2013-08-12 13:45:00,
2013-08-12 09:55:00,85.2,78.3,30.11,South,188,1.0,1.0,80,0.00,,,0.00,Wunderground v.1.15,2013-08-12 13:55:00,
2013-08-12 10:00:00,85.5,79.7,30.11,SW,233,1.0,1.0,83,0.00,,,0.00,Wunderground v.1.15,2013-08-12 14:00:00,
2013-08-12 10:10:00,85.7,78.8,30.11,WSW,239,1.0,1.0,80,0.00,,,0.00,Wunderground v.1.15,2013-08-12 14:10:00,
2013-08-12 10:15:00,86.2,78.9,30.11,SW,233,0.0,1.0,79,0.00,,,0.00,Wunderground v.1.15,2013-08-12 14:15:00,
2013-08-12 10:25:00,87.2,78.7,30.10,NE,51,0.0,1.0,76,0.00,,,0.00,Wunderground v.1.15,2013-08-12 14:25:00,
2013-08-12 10:30:00,87.1,78.6,30.10,East,80,1.0,1.0,76,0.00,,,0.00,Wunderground v.1.15,2013-08-12 14:30:00,
2013-08-12 10:40:00,87.6,79.1,30.10,South,177,0.0,2.0,76,0.00,,,0.00,Wunderground v.1.15,2013-08-12 14:40:00,
2013-08-12 10:50:00,87.2,78.7,30.10,NW,321,1.0,1.0,76,0.00,,,0.00,Wunderground v.1.15,2013-08-12 14:50:00,
2013-08-12 11:00:00,86.6,78.5,30.10,NNE,28,1.0,1.0,77,0.00,,,0.00,Wunderground v.1.15,2013-08-12 15:00:00,
2013-08-12 11:05:00,86.0,78.3,30.10,NNW,327,1.0,1.0,78,0.00,,,0.00,Wunderground v.1.15,2013-08-12 15:05:00,
2013-08-12 11:15:00,85.7,78.4,30.10,SSE,163,0.0,1.0,79,0.00,,,0.00,Wunderground v.1.15,2013-08-12 15:15:00,
2013-08-12 11:25:00,87.1,79.0,30.10,East,92,1.0,3.0,77,0.00,,,0.00,Wunderground v.1.15,2013-08-12 15:25:00,
2013-08-12 11:30:00,87.3,80.0,30.10,South,190,1.0,1.0,79,0.00,,,0.00,Wunderground v.1.15,2013-08-12 15:30:00,
2013-08-12 11:40:00,88.1,79.6,30.10,North,351,1.0,1.0,76,0.00,,,0.00,Wunderground v.1.15,2013-08-12 15:40:00,
2013-08-12 11:45:00,88.4,79.9,30.09,NE,38,1.0,3.0,76,0.00,,,0.00,Wunderground v.1.15,2013-08-12 15:45:00,
2013-08-12 11:55:00,89.0,80.0,30.09,ENE,59,1.0,1.0,75,0.00,,,0.00,Wunderground v.1.15,2013-08-12 15:55:00,
2013-08-12 12:00:00,88.9,79.9,30.09,ESE,121,1.0,1.0,75,0.00,,,0.00,Wunderground v.1.15,2013-08-12 16:00:00,
2013-08-12 12:05:00,89.4,79.6,30.09,NNE,23,1.0,1.0,73,0.00,,,0.00,Wunderground v.1.15,2013-08-12 16:05:00,
2013-08-12 12:15:00,89.3,79.5,30.09,ENE,59,1.0,1.0,73,0.00,,,0.00,Wunderground v.1.15,2013-08-12 16:15:00,
2013-08-12 12:25:00,89.3,79.9,30.08,East,82,2.0,2.0,74,0.00,,,0.00,Wunderground v.1.15,2013-08-12 16:25:00,
2013-08-12 12:35:00,89.0,78.8,30.08,NNW,342,1.0,3.0,72,0.00,,,0.00,Wunderground v.1.15,2013-08-12 16:35:00,
2013-08-12 12:40:00,88.6,78.8,30.08,NW,325,1.0,1.0,73,0.00,,,0.00,Wunderground v.1.15,2013-08-12 16:40:00,
2013-08-12 12:50:00,88.5,78.7,30.07,East,101,1.0,1.0,73,0.00,,,0.00,Wunderground v.1.15,2013-08-12 16:50:00,
2013-08-12 13:00:00,88.0,78.3,30.07,ENE,76,0.0,1.0,73,0.00,,,0.00,Wunderground v.1.15,2013-08-12 17:00:00,
2013-08-12 13:05:00,87.5,78.6,30.07,NNW,330,0.0,2.0,75,0.00,,,0.00,Wunderground v.1.15,2013-08-12 17:05:00,
2013-08-12 13:15:00,87.4,79.3,30.07,NNW,327,1.0,1.0,77,0.00,,,0.00,Wunderground v.1.15,2013-08-12 17:15:00,
2013-08-12 13:25:00,87.6,79.5,30.07,NNW,327,0.0,0.0,77,0.00,,,0.00,Wunderground v.1.15,2013-08-12 17:25:00,
2013-08-12 13:35:00,88.0,79.5,30.07,NNW,327,0.0,0.0,76,0.00,,,0.00,Wunderground v.1.15,2013-08-12 17:35:00,
2013-08-12 13:40:00,88.1,79.6,30.07,NNW,327,0.0,0.0,76,0.00,,,0.00,Wunderground v.1.15,2013-08-12 17:40:00,
2013-08-12 13:50:00,87.7,79.2,30.07,NE,52,0.0,1.0,76,0.00,,,0.00,Wunderground v.1.15,2013-08-12 17:50:00,
2013-08-12 13:55:00,87.8,79.7,30.07,SSE,153,0.0,1.0,77,0.00,,,0.00,Wunderground v.1.15,2013-08-12 17:55:00,
2013-08-12 14:05:00,89.4,80.4,30.06,South,175,0.0,2.0,75,0.00,,,0.00,Wunderground v.1.15,2013-08-12 18:05:00,
2013-08-12 14:15:00,90.1,80.7,30.06,SSW,195,1.0,2.0,74,0.00,,,0.00,Wunderground v.1.15,2013-08-12 18:15:00,
2013-08-12 14:25:00,90.9,80.6,30.05,ENE,76,1.0,4.0,72,0.00,,,0.00,Wunderground v.1.15,2013-08-12 18:25:00,
2013-08-12 14:35:00,91.7,80.5,30.05,ESE,109,2.0,3.0,70,0.00,,,0.00,Wunderground v.1.15,2013-08-12 18:35:00,
2013-08-12 14:45:00,92.3,80.2,30.04,SE,133,1.0,2.0,68,0.00,,,0.00,Wunderground v.1.15,2013-08-12 18:45:00,
2013-08-12 14:55:00,92.4,79.8,30.04,NE,48,1.0,2.0,67,0.00,,,0.00,Wunderground v.1.15,2013-08-12 18:55:00,
2013-08-12 15:00:00,92.8,79.8,30.04,ESE,121,0.0,0.0,66,0.00,,,0.00,Wunderground v.1.15,2013-08-12 19:00:00,
2013-08-12 15:10:00,94.0,80.9,30.03,South,175,1.0,1.0,66,0.00,,,0.00,Wunderground v.1.15,2013-08-12 19:10:00,
2013-08-12 15:15:00,94.6,81.5,30.03,SSW,212,1.0,1.0,66,0.00,,,0.00,Wunderground v.1.15,2013-08-12 19:15:00,
2013-08-12 15:25:00,93.5,79.0,30.03,NE,51,2.0,2.0,63,0.00,,,0.00,Wunderground v.1.15,2013-08-12 19:25:00,
2013-08-12 15:35:00,92.0,79.9,30.02,NE,48,0.0,2.0,68,0.00,,,0.00,Wunderground v.1.15,2013-08-12 19:35:00,
2013-08-12 15:45:00,92.2,79.2,30.02,SE,138,0.0,0.0,66,0.00,,,0.00,Wunderground v.1.15,2013-08-12 19:45:00,
2013-08-12 15:50:00,92.8,79.8,30.02,SSW,192,0.0,1.0,66,0.00,,,0.00,Wunderground v.1.15,2013-08-12 19:50:00,
2013-08-12 16:00:00,92.9,79.9,30.02,SE,132,2.0,2.0,66,0.00,,,0.00,Wunderground v.1.15,2013-08-12 20:00:00,
2013-08-12 16:10:00,92.3,79.3,30.02,SSE,153,1.0,1.0,66,0.00,,,0.00,Wunderground v.1.15,2013-08-12 20:10:00,
2013-08-12 16:15:00,91.8,79.7,30.01,South,176,1.0,1.0,68,0.00,,,0.00,Wunderground v.1.15,2013-08-12 20:15:00,
2013-08-12 16:25:00,91.2,80.0,30.01,South,176,0.0,0.0,70,0.00,,,0.00,Wunderground v.1.15,2013-08-12 20:25:00,
2013-08-12 16:30:00,91.0,79.8,30.01,SSW,211,0.0,1.0,70,0.00,,,0.00,Wunderground v.1.15,2013-08-12 20:30:00,
2013-08-12 16:40:00,91.2,80.5,30.01,East,83,0.0,0.0,71,0.00,,,0.00,Wunderground v.1.15,2013-08-12 20:40:00,
2013-08-12 16:50:00,92.1,78.6,30.01,SW,219,0.0,0.0,65,0.00,,,0.00,Wunderground v.1.15,2013-08-12 20:50:00,
2013-08-12 16:55:00,92.9,79.9,30.00,South,176,1.0,1.0,66,0.00,,,0.00,Wunderground v.1.15,2013-08-12 20:55:00,
2013-08-12 17:05:00,93.2,79.7,30.00,SE,142,1.0,3.0,65,0.00,,,0.00,Wunderground v.1.15,2013-08-12 21:05:00,
2013-08-12 17:15:00,91.9,78.4,30.00,SSE,149,0.0,1.0,65,0.00,,,0.00,Wunderground v.1.15,2013-08-12 21:15:00,
2013-08-12 17:25:00,91.7,79.6,30.00,SE,136,0.0,2.0,68,0.00,,,0.00,Wunderground v.1.15,2013-08-12 21:25:00,
2013-08-12 17:30:00,91.6,79.1,29.99,SE,133,0.0,0.0,67,0.00,,,0.00,Wunderground v.1.15,2013-08-12 21:30:00,
2013-08-12 17:35:00,91.5,79.4,29.99,SE,133,0.0,0.0,68,0.00,,,0.00,Wunderground v.1.15,2013-08-12 21:35:00,
2013-08-12 17:45:00,91.7,80.1,29.99,SE,125,0.0,3.0,69,0.00,,,0.00,Wunderground v.1.15,2013-08-12 21:45:00,
2013-08-12 17:50:00,91.9,79.8,29.99,ESE,111,0.0,0.0,68,0.00,,,0.00,Wunderground v.1.15,2013-08-12 21:50:00,
2013-08-12 18:00:00,92.2,79.2,29.99,SE,143,0.0,2.0,66,0.00,,,0.00,Wunderground v.1.15,2013-08-12 22:00:00,
2013-08-12 18:10:00,92.2,78.7,29.99,WSW,238,0.0,0.0,65,0.00,,,0.00,Wunderground v.1.15,2013-08-12 22:10:00,
2013-08-12 18:15:00,92.2,79.2,29.99,SSE,152,0.0,0.0,66,0.00,,,0.00,Wunderground v.1.15,2013-08-12 22:15:00,
2013-08-12 18:25:00,91.9,78.9,29.99,SW,214,0.0,2.0,66,0.00,,,0.00,Wunderground v.1.15,2013-08-12 22:25:00,
2013-08-12 18:35:00,91.7,78.7,29.99,SE,138,0.0,1.0,66,0.00,,,0.00,Wunderground v.1.15,2013-08-12 22:35:00,
2013-08-12 18:40:00,91.5,79.0,29.99,SSW,213,0.0,1.0,67,0.00,,,0.00,Wunderground v.1.15,2013-08-12 22:40:00,
2013-08-12 18:50:00,91.1,79.9,29.99,SSW,204,0.0,0.0,70,0.00,,,0.00,Wunderground v.1.15,2013-08-12 22:50:00,
2013-08-12 18:55:00,90.9,80.6,29.99,SSW,204,0.0,0.0,72,0.00,,,0.00,Wunderground v.1.15,2013-08-12 22:55:00,
2013-08-12 19:00:00,90.6,79.9,29.99,SSW,204,0.0,0.0,71,0.00,,,0.00,Wunderground v.1.15,2013-08-12 23:00:00,
2013-08-12 19:05:00,90.4,80.1,29.99,SSW,204,0.0,0.0,72,0.00,,,0.00,Wunderground v.1.15,2013-08-12 23:05:00,
2013-08-12 19:15:00,90.0,81.0,29.99,SSW,204,0.0,0.0,75,0.00,,,0.00,Wunderground v.1.15,2013-08-12 23:15:00,
2013-08-12 19:20:00,89.7,79.5,29.99,SSW,204,0.0,0.0,72,0.00,,,0.00,Wunderground v.1.15,2013-08-12 23:20:00,
2013-08-12 19:30:00,88.8,80.7,29.99,SSW,204,0.0,0.0,77,0.00,,,0.00,Wunderground v.1.15,2013-08-12 23:30:00,
2013-08-12 19:35:00,88.5,81.1,29.99,SSW,204,0.0,0.0,79,0.00,,,0.00,Wunderground v.1.15,2013-08-12 23:35:00,
2013-08-12 19:45:00,87.5,80.9,29.99,SSW,204,0.0,0.0,81,0.00,,,0.00,Wunderground v.1.15,2013-08-12 23:45:00,
2013-08-12 19:50:00,87.1,80.6,29.99,SSW,204,0.0,0.0,81,0.00,,,0.00,Wunderground v.1.15,2013-08-12 23:50:00,
2013-08-12 20:00:00,86.1,79.6,30.00,SSW,204,0.0,0.0,81,0.00,,,0.00,Wunderground v.1.15,2013-08-13 00:00:00,
2013-08-12 20:05:00,85.9,78.6,30.01,SW,229,0.0,0.0,79,0.00,,,0.00,Wunderground v.1.15,2013-08-13 00:05:00,
2013-08-12 20:15:00,85.2,77.6,30.01,North,355,1.0,1.0,78,0.00,,,0.00,Wunderground v.1.15,2013-08-13 00:15:00,
2013-08-12 20:25:00,84.3,77.5,30.01,North,355,2.0,3.0,80,0.00,,,0.00,Wunderground v.1.15,2013-08-13 00:25:00,
2013-08-12 20:30:00,83.6,77.9,30.02,NNE,24,2.0,2.0,83,0.99,,,0.02,Wunderground v.1.15,2013-08-13 00:30:00,
2013-08-12 20:40:00,80.3,77.1,30.02,NW,323,1.0,3.0,90,0.45,,,0.19,Wunderground v.1.15,2013-08-13 00:40:00,
2013-08-12 20:50:00,78.9,76.4,30.02,West,275,1.0,1.0,92,0.24,,,0.24,Wunderground v.1.15,2013-08-13 00:50:00,
2013-08-12 21:00:00,78.6,76.7,30.02,ENE,57,0.0,0.0,94,0.08,,,0.25,Wunderground v.1.15,2013-08-13 01:00:00,
2013-08-12 21:10:00,78.4,76.8,30.02,ENE,57,0.0,0.0,95,0.04,,,0.25,Wunderground v.1.15,2013-08-13 01:10:00,
2013-08-12 21:15:00,78.4,76.8,30.03,ENE,57,0.0,1.0,95,0.00,,,0.25,Wunderground v.1.15,2013-08-13 01:15:00,
2013-08-12 21:25:00,78.5,77.3,30.03,ENE,57,0.0,0.0,96,0.00,,,0.25,Wunderground v.1.15,2013-08-13 01:25:00,
2013-08-12 21:30:00,78.5,77.3,30.03,ENE,57,0.0,1.0,96,0.00,,,0.25,Wunderground v.1.15,2013-08-13 01:30:00,
2013-08-12 21:40:00,78.3,77.1,30.04,NE,55,0.0,0.0,96,0.00,,,0.25,Wunderground v.1.15,2013-08-13 01:40:00,
2013-08-12 21:50:00,78.3,77.1,30.04,SSW,192,0.0,0.0,96,0.00,,,0.25,Wunderground v.1.15,2013-08-13 01:50:00,
2013-08-12 22:00:00,78.3,77.1,30.05,SW,222,0.0,0.0,96,0.00,,,0.25,Wunderground v.1.15,2013-08-13 02:00:00,
2013-08-12 22:10:00,77.6,76.1,30.05,WSW,254,0.0,1.0,95,0.00,,,0.25,Wunderground v.1.15,2013-08-13 02:10:00,
2013-08-12 22:15:00,77.6,75.7,30.05,West,267,1.0,1.0,94,0.00,,,0.25,Wunderground v.1.15,2013-08-13 02:15:00,
2013-08-12 22:25:00,77.4,75.5,30.07,West,270,0.0,1.0,94,0.00,,,0.25,Wunderground v.1.15,2013-08-13 02:25:00,
2013-08-12 22:30:00,77.3,75.8,30.07,NW,315,0.0,0.0,95,0.00,,,0.25,Wunderground v.1.15,2013-08-13 02:30:00,
2013-08-12 22:40:00,77.1,75.6,30.07,West,267,0.0,0.0,95,0.00,,,0.25,Wunderground v.1.15,2013-08-13 02:40:00,
2013-08-12 22:50:00,77.0,75.5,30.07,West,267,0.0,0.0,95,0.00,,,0.25,Wunderground v.1.15,2013-08-13 02:50:00,
2013-08-12 23:00:00,76.7,75.2,30.05,West,267,0.0,0.0,95,0.00,,,0.25,Wunderground v.1.15,2013-08-13 03:00:00,
2013-08-12 23:10:00,76.5,75.3,30.05,West,267,0.0,0.0,96,0.00,,,0.25,Wunderground v.1.15,2013-08-13 03:10:00,
2013-08-12 23:15:00,76.5,75.3,30.05,West,267,0.0,0.0,96,0.00,,,0.25,Wunderground v.1.15,2013-08-13 03:15:00,
2013-08-12 23:25:00,76.4,75.5,30.05,West,267,0.0,0.0,97,0.00,,,0.25,Wunderground v.1.15,2013-08-13 03:25:00,
2013-08-12 23:30:00,76.3,75.1,30.05,West,267,0.0,0.0,96,0.00,,,0.25,Wunderground v.1.15,2013-08-13 03:30:00,
2013-08-12 23:35:00,76.2,75.0,30.05,West,267,0.0,0.0,96,0.00,,,0.25,Wunderground v.1.15,2013-08-13 03:35:00,
2013-08-12 23:45:00,76.1,75.2,30.05,West,267,0.0,0.0,97,0.00,,,0.25,Wunderground v.1.15,2013-08-13 03:45:00,
2013-08-12 23:55:00,76.0,75.1,30.05,West,267,0.0,0.0,97,0.00,,,0.25,Wunderground v.1.15,2013-08-13 03:55:00,